Location: Kumla
(59.1265°N, 15.1401°E)
Time: 15:21:12
(UTC+01:00)

Vanguard 2 Rocket - Pass Details

Date: 09 December 2023
Orbit: 554 x 3309 km, 32.9° (Epoch: 26 February)

Event Time Altitude Azimuth Distance (km) Brightness Sun altitude
Rises 16:48:06 0° 252° (WSW) 6,738 13.4 -11.7°
Reaches altitude 10° 16:53:27 10° 241° (WSW) 5,990 12.6 -12.4°
Maximum altitude 17:07:37 27° 195° (SSW) 4,981 11.0 -14.0°
Drops below altitude 10° 17:21:34 10° 148° (SSE) 5,881 10.9 -15.7°
Sets 17:26:46 0° 137° (SE) 6,596 11.0 -16.4°
